Regional Weather Roundup
Issued by NWS Charleston, WV

Home | Current Version | Previous Version | Graphics & Text | Print | Product List | Glossary On
Versions: 1 2 3 4 5 6 7 8 9 10 11 12 13 14 15 16 17 18 19 20 21 22 23 24 25 26 27 28 29 30 31 32 33 34 35 36 37 38 39 40 41 42 43 44 45 46 47 48 49 50
490
ASUS41 KRLX 070210
RWRRLX
West Virginia Regional Weather Roundup
National Weather Service Charleston WV
900 PM EST SAT FEB 06 2016

Note: "fair" indicates few or no clouds below 12,000 feet with no
significant weather and/or obstructions to visibility.

WVZ003-070300-
Northern Panhandle of West Virginia

CITY           SKY/WX    TMP DP  RH WIND       PRES   REMARKS
WHEELING         N/A     34  11  38 SW6       30.22S
$$

WVZ009-070300-
Northwest West Virginia

CITY           SKY/WX    TMP DP  RH WIND       PRES   REMARKS
PARKERSBURG      N/A     32  16  51 CALM      30.27F
$$

WVZ006-070300-
Western West Virginia

CITY           SKY/WX    TMP DP  RH WIND       PRES   REMARKS
HUNTINGTON       N/A     42  21  43 CALM      30.25F
$$

WVZ015-070300-
West Central West Virginia

CITY           SKY/WX    TMP DP  RH WIND       PRES   REMARKS
CHARLESTON     CLOUDY    39  23  52 N3        30.25S
$$

WVZ022-031-070300-
North Central West Virginia

CITY           SKY/WX    TMP DP  RH WIND       PRES   REMARKS
CLARKSBURG       N/A     34  18  52 CALM      30.24S
MORGANTOWN       N/A     32  15  49 CALM      30.25S
$$

WVZ025-035-042-045-070300-
Southern West Virginia

CITY           SKY/WX    TMP DP  RH WIND       PRES   REMARKS
BECKLEY          N/A     36  16  44 SW3       30.22F
LOGAN          CLOUDY    41  18  38 CALM      30.24S
BLUEFIELD      MOCLDY    32  15  49 W3        30.22F
LEWISBURG        N/A     36  20  51 CALM      30.22F
$$

WVZ047-070300-
Northern Mountains of West Virginia

CITY           SKY/WX    TMP DP  RH WIND       PRES   REMARKS
ELKINS           N/A     26  19  74 CALM      30.23S
$$

WVZ052-070300-
Eastern Panhandle of West Virginia

CITY           SKY/WX    TMP DP  RH WIND       PRES   REMARKS
MARTINSBURG      N/A     33  18  53 SW3       30.27R
PETERSBURG       N/A     32  25  76 CALM      30.26S
$$




USA.gov is the U.S. government's official web portal to all federal, state and local government web resources and services.